Regional Weather Roundup
Issued by NWS Upton, NY

Current Version | Previous Version | Graphics & Text | Print | Product List | Glossary Off
Versions: 1 2 3 4 5 6 7 8 9 10 11 12 13 14 15 16 17 18 19 20 21 22 23 24 25 26 27 28 29

000
ASUS41 KOKX 242205
RWROKX

REGIONAL WEATHER ROUNDUP
NATIONAL WEATHER SERVICE NEW YORK NY
600 PM EDT THU APR 24 2014

NOTE: "FAIR" INDICATES FEW OR NO CLOUDS BELOW 12,000 FEET WITH NO
SIGNIFICANT WEATHER AND/OR OBSTRUCTIONS TO VISIBILITY.

NYZ071-072-176-178-NJZ106-104-242300-
NEW YORK CITY METRO AREA


CITY           SKY/WX    TMP DP  RH WIND       PRES   REMARKS
CENTRAL PARK   SUNNY     61  10  13 NW13G28   29.91R
LAGUARDIA APRT MOSUNNY   60  11  14 NW17G29   29.88R
KENNEDY INTL   MOSUNNY   62   5  10 NW21G33   29.88R
NEWARK/LIBERTY MOSUNNY   62   7  11 N29       29.89R
TETERBORO      SUNNY     63  14  15 NW16G26   29.88R
$$

NYZ177-179-078>081-242300-
LONG ISLAND NEW YORK

CITY           SKY/WX    TMP DP  RH WIND       PRES   REMARKS
FARMINGDALE    SUNNY     60  11  14 NW17G26   29.86R
ISLIP          MOSUNNY   61  13  15 N20G28    29.83R
SHIRLEY        SUNNY     59  14  17 NW17G29   29.85R
WESTHAMPTON    SUNNY     58  16  19 NW17G29   29.84R
MONTAUK POINT    N/A     56  29  35 NW13G21   29.79R
$$

NYZ052-065-067-242300-
HUDSON VALLEY

CITY           SKY/WX    TMP DP  RH WIND       PRES   REMARKS
WHITE PLAINS   SUNNY     59  12  15 NW17G29   29.86R
NEWBURGH       SUNNY     57  16  19 N23G35    29.90R
MONTGOMERY     SUNNY     58  12  16 NW17G26   29.90R
POUGHKEEPSIE   SUNNY     59  16  18 NW12G25   29.88R
ALBANY         SUNNY     58  12  16 NW18G28   29.90R
$$

NJZ001-105-106-008-010-013-015-019>022-104-242300-
NEW JERSEY

CITY           SKY/WX    TMP DP  RH WIND       PRES   REMARKS
NEWARK/LIBERTY MOSUNNY   62   7  11 N29       29.89R
TETERBORO      SUNNY     63  14  15 NW16G26   29.88R
CALDWELL       SUNNY     59  12  15 N12G24    29.92R
MORRISTOWN     SUNNY     59  10  14 N14G31    29.92R
SOMERVILLE     SUNNY     60  11  14 NW15G23   29.92R
LINDEN         FAIR      63  16  16 NW18G25   29.91S
SUSSEX         SUNNY     60  12  15 NW13G22   29.94R
ANDOVER          N/A     57  12  17 N9G21     29.94R
TRENTON        SUNNY     60  11  14 N17G26    29.93R
MILLVILLE      SUNNY     61  20  20 NW15G23   29.96S
ATLANTIC CITY  SUNNY     62  16  16 NW17G23   29.94R
WRIGHTSTOWN    SUNNY     61  15  16 NW15G24   29.92R
TOMS RIVER     SUNNY     59  14  17 NW13G20   29.92R
BELMAR         SUNNY     61  16  17 NW17G33   29.91R
$$

PAZ047>061-062-071-242300-
EASTERN PENNSYLVANIA

CITY           SKY/WX    TMP DP  RH WIND       PRES   REMARKS
PHILADELPHIA   MOSUNNY   63  10  12 W16       29.97R
ALLENTOWN      SUNNY     60  13  15 NW13      29.97R
SCRANTON       SUNNY     55  11  17 N16G24    29.99R
$$

CTZ002-004>006-009-010-012-RIZ004-006-007-MAZ004-011-015-242300-
SOUTHERN NEW ENGLAND
 IN CT

CITY           SKY/WX    TMP DP  RH WIND       PRES   REMARKS
BRADLEY INTL   SUNNY     58  15  18 NW20G31   29.81R
HARTFORD       SUNNY     58  14  17 N21G32    29.82R
DANBURY        SUNNY     57  12  17 NW13G26   29.88R
WTRBRY/OXFORD  SUNNY     55  16  21 MISG      29.86R
BRIDGEPORT     SUNNY     60  10  14 NW21G36   29.85R
MERIDEN        SUNNY     58  14  17 NW24G33   29.83R
NEW HAVEN      SUNNY     59  13  16 NW15G30   29.84R
CHESTER        FAIR      57  14  18 N16G26    29.81R
GROTON         SUNNY     59  19  21 NW15G30   29.77R
WILLIMANTIC    SUNNY     58  19  22 NW16G28   29.79R

 IN RI

CITY           SKY/WX    TMP DP  RH WIND       PRES   REMARKS
PROVIDENCE     MOSUNNY   58  19  22 NW21G30   29.75R
BLOCK ISLAND   SUNNY     55  25  30 NW16G25   29.76S
WESTERLY       SUNNY     59  19  21 NW15G31   29.78R

 IN MA

CITY           SKY/WX    TMP DP  RH WIND       PRES   REMARKS
BOSTON         MOSUNNY   56  23  27 NW26G37   29.75R
WORCESTER      SUNNY     52  20  28 NW15G36   29.77R
WESTFIELD      SUNNY     58  18  21 N22G30    29.82R
PROVINCETOWN   SUNNY     50  34  53 MISG      29.73R
NANTUCKET      SUNNY     54  30  40 NW18G26   29.71R
$$

ANZ330-335-338-340-345-350-353-355-242300-
COASTAL MARINE OBSERVATIONS


STATION/POSITION TIME  SKY/WX   TEMP    WIND        PRES    VSBY  WAVE
                                AIR SEA DIR/SP/G                  HT/PER
                 (UTC)          (F)     (DEG/KT/KT) (MB)    (MI)  (FT/S)
NY HARB ENTRANCE 2200            52 45  VRB 14/ 19  1011.7
4S FIRE IS       2100               45                N/A           3/ 4
23SW MTP         2200            50 44  300/ 17/ 21 1008.8          4/ 6
HUDSON CANYON    2100            48 46  270/ 16/ 17 1010.9          5/ 6
EXECUTION ROCKS  2200            59 46  320/ 17/ 27   N/A
WESTERN LI SOUND 2100            56     310/ 17/ 27   N/A           1/ 3
CENTRAL LI SOUND 2100            52 44  320/ 17/ 21   N/A           3/ 5
EASTERN LI SOUND NOT AVBL
ROBBINS REEF     2200            59     320/ 22/ 30   N/A
$$


>>>>>>>>>>>>>>>>>>>>>>>>>>>> KEY <<<<<<<<<<<<<<<<<<<<<<<<<<<
>                                                          <
>     SKY/WX - SKY CONDITION/PRESENT WEATHER               <
>     TMP    - TEMPERATURE IN FAHRENHEIT                   <
>     DP     - DEWPOINT IN FAHRENHEIT                      <
>     RH     - RELATIVE HUMIDITY IN PERCENT                <
>     WIND   - DIRECTION AND SPEED IN MPH                  <
>     PRES   - MEAN SEA LEVEL PRESSURE IN INCHES OF HG     <
>     WCI    - WIND CHILL INDEX                            <
>     VSB    - VISIBILITY IN MILES                         <
>     HX     - HEAT INDEX                                  <
>     TC     - TEMPERATURE IN CELSIUS                      <
>     VRB    - VARIABLE WIND DIRECTION                     <
>                                                          <
>>>>>>>>>>>>>>>>>>>>>>>>>>>> KEY <<<<<<<<<<<<<<<<<<<<<<<<<<<





USA.gov is the U.S. government's official web portal to all federal, state and local government web resources and services.